TOURFACTS.DK  
Stats and Facts from Tour de France.

Tour de France 2018 starts in 69 days
  Riders   Stages   Teams   Summits   Yearly  


 
Search by year

After 2017 - Stage 21:
 14824 starters.
  5132 different riders.
  638 teams.
  2232 stages.
  456 restdays.
  439589.60 km.
  5653 abandonnees.


Top 3
GC
Christopher Froome86:20:55
Rigoberto Urán86:21:49
Romain Bardet86:23:15
Climb
Warren Barguil169 pt.
Primoz Roglic80 pt.
Thomas De Gendt64 pt.
Sprint
Michael Matthews359 pt.
André Greipel234 pt.
Edvald Boasson Hagen220 pt.
Youth
Simon Yates86:27:09
Louis Meintjes86:29:15
Emanuel Buchmann86:54:16
Facts from Tour de France 1948
  |   Stages.  |   Stage winners.  |   Days in yellow  |   Average speed.  |   Route.  |   Teams.  |   All riders.  |   Rookies.  |   Withdrawls.  |  

  |   GC.  |   Polka  |   Green  |   White  |   Summits. (In tour)  |   Summits. (Points)  |   Miscellaneous.  |  

Stage 8 on 08 - 07 - 1948
         Owning:    Louison Bobet    
Pick a stage:  1 2 3 4 5 6 7 8 9 10 11 12 13 14 15 16 17 18 19 20 21
  LourdesToulouse | Dist: 261.00 km.
Cat: 1Col du TourmaletFRAJean Robic
10 points
 
Cat: 2Col d'AspinFRAJean Robic
5 points
 
Cat: 2Col de PeyresourdeFRAJean Robic
5 points
 

Average speed for all riders in stage:  30,099 km./hr.
    Place:Name:Team:Time:Km/h:
ITAGino BartaliITAItaly08:27:25  +  00:00:00=30,862 
FRAGuy LapébieFRACenter-South West08:27:25  +  00:00:00=30,862 
BELStan OckersBELBelgium08:27:25  +  00:00:00=30,862 
4 ITAGiuseppe TaccaINTInternations08:27:25  +  00:00:00=30,862 
5 FRALouis ThiétardFRAParis08:27:25  +  00:00:00=30,862 
6 ITAGiordano CotturITAItaly08:27:25  +  00:00:00=30,862 
7 ITAPaul NeriINTInternations08:27:25  +  00:00:00=30,862 
8 FRAJean RobicFRAFrance08:27:25  +  00:00:00=30,862 
9 FRAAndré BruléFRAParis08:27:25  +  00:00:00=30,862 
10 FRALucien TeisseireFRAFrance08:27:25  +  00:00:00=30,862 
11 FRABernard GauthierFRASouth-East08:27:25  +  00:00:00=30,862 
12 FRAKléber PiotFRAParis08:27:25  +  00:00:00=30,862 
13 ITABruno PasquiniITAItaly08:27:25  +  00:00:00=30,862 
14 LUXJean KirchenINTHolland-Luxembourg08:27:25  +  00:00:00=30,862 
15 FRARobert ChapatteFRAParis08:27:25  +  00:00:00=30,862 
16 FRARaphaël GeminianiFRACenter-South West08:27:25  +  00:00:00=30,862 
17 FRARené ViettoFRAFrance08:27:25  +  00:00:00=30,862 
18 FRALouison BobetFRAFrance08:27:25  +  00:00:00=30,862 
19 ITAFermo CamelliniINTInternations08:27:25  +  00:00:00=30,862 
20 BELMarcel DupontBELAiglons Belges08:27:25  +  00:00:00=30,862 
21 BELRoger LambrechtINTInternations08:27:25  +  00:00:00=30,862 
22 FRAJacques MarinelliFRAParis08:27:25  +  00:00:00=30,862 
23 FRAJean-Apotre LazaridesFRAFrance08:27:25  +  00:00:00=30,862 
24 SUIPierre BrambillaINTInternations08:27:25  +  00:00:00=30,862 
25 FRAJean De GribaldyFRAIle De France-North East08:30:18  +  00:02:53=30,688 
26 ITAAlfred MacorigFRACenter-South West08:30:40  +  00:03:15=30,666 
27 ITAEgidio FeruglioITAItaly08:30:40  +  00:03:15=30,666 
28 FRAPierre MolinerisFRASouth-East08:30:40  +  00:03:15=30,666 
29 FRAGeorges MartinFRASouth-East08:30:40  +  00:03:15=30,666 
30 BELMaurice MeersmanBELAiglons Belges08:30:40  +  00:03:15=30,666 
31 ITAEnzo CoppiniITACadetti Italiens08:30:40  +  00:03:15=30,666 
32 BELLucien MathysBELAiglons Belges08:30:40  +  00:03:15=30,666 
33 FRAMaurice DiotFRAParis08:30:40  +  00:03:15=30,666 
34 BELRaymond ImpanisBELBelgium08:30:40  +  00:03:15=30,666 
35 FRARobert BonnaventureFRAWest08:30:40  +  00:03:15=30,666 
36 FRADaniel ThuayreFRAIle De France-North East08:30:40  +  00:03:15=30,666 
37 FRAPierre CoganFRAWest08:30:40  +  00:03:15=30,666 
38 ITAAldo RonconiITACadetti Italiens08:30:40  +  00:03:15=30,666 
39 BELBriek SchotteBELBelgium08:30:40  +  00:03:15=30,666 
40 FRAPaul GiguetFRAFrance08:30:40  +  00:03:15=30,666 
41 FRAFrancois HelaryFRAIle De France-North East08:30:40  +  00:03:15=30,666 
42 ITAGino SciardisINTInternations08:30:40  +  00:03:15=30,666 
43 ITAPrimo VolpiITAItaly08:30:40  +  00:03:15=30,666 
44 FRARaoul RemyFRASouth-East08:30:40  +  00:03:15=30,666 
45 FRAJean-Marie GoasmatFRAWest08:30:40  +  00:03:15=30,666 
46 FRARaymond GoussotFRAParis08:34:42  +  00:07:17=30,425 
47 BELAlbert RamonBELBelgium08:34:42  +  00:07:17=30,425 
48 ITAGiovanni CorrieriITAItaly08:34:42  +  00:07:17=30,425 
49 FRAEdouard MullerFRAIle De France-North East08:34:42  +  00:07:17=30,425 
50 ITAAntonio BevilacquaITAItaly08:34:42  +  00:07:17=30,425 
51 NEDJoseph JanssenINTHolland-Luxembourg08:34:42  +  00:07:17=30,425 
52 BELVictor JolyINTInternations08:34:42  +  00:07:17=30,425 
53 FRARobert DesbatsFRACenter-South West08:34:42  +  00:07:17=30,425 
54 BELFlorent RondeléBELAiglons Belges08:34:42  +  00:07:17=30,425 
55 FRAAlphonse De VreeseFRAIle De France-North East08:34:42  +  00:07:17=30,425 
56 GEREdouard KlabinskiINTInternations08:34:42  +  00:07:17=30,425 
57 NEDWim De RuyterINTHolland-Luxembourg08:34:42  +  00:07:17=30,425 
58 FRAGeorges RamouluxFRACenter-South West08:34:42  +  00:07:17=30,425 
59 ITASerifano BiagioniITAItaly08:34:42  +  00:07:17=30,425 
60 ITAVittorio MagniITACadetti Italiens08:34:42  +  00:07:17=30,425 
61 BELEdward Van DijckBELBelgium08:34:42  +  00:07:17=30,425 
62 BELLeon JomauxBELAiglons Belges08:34:42  +  00:07:17=30,425 
63 SUIRoger AeschlimannINTInternations08:36:44  +  00:09:19=30,306 
64 MEXAttilio LambertiniITACadetti Italiens08:37:18  +  00:09:53=30,273 
65 FRAJean ReyFRASouth-East08:39:56  +  00:12:31=30,119 
66 ITAVittorio SeghezziITACadetti Italiens08:52:34  +  00:25:09=29,405 
67 BELAndré RosseelBELAiglons Belges08:53:45  +  00:26:20=29,340 
68 FRAMaurice De MuerFRAIle De France-North East08:53:45  +  00:26:20=29,340 
69 BELJean EngelsBELAiglons Belges08:53:45  +  00:26:20=29,340 
70 BELNorbert CallensBELBelgium08:58:44  +  00:31:19=29,068 
71 BELFlorent MathieuBELBelgium08:58:44  +  00:31:19=29,068 
72 NEDBernard FrankenINTHolland-Luxembourg09:03:52  +  00:36:27=28,794 
73 FRAMaurice CarpentierFRAWest09:03:52  +  00:36:27=28,794 
74 NEDHenk de HoogINTHolland-Luxembourg09:03:52  +  00:36:27=28,794 
75 BELRené MertensBELBelgium09:03:52  +  00:36:27=28,794 
76 FRARoger ChupinFRAWest09:03:52  +  00:36:27=28,794 
77 GERCésar MarcelakFRAIle De France-North East09:03:52  +  00:36:27=28,794 
78 FRAPaul MayeFRACenter-South West09:03:52  +  00:36:27=28,794 
79 BELAndré DeclerckBELBelgium09:03:52  +  00:36:27=28,794 
80 ITAUrbain CaffiFRAIle De France-North East09:03:52  +  00:36:27=28,794 
81 FRAPierre BaratinFRAIle De France-North East09:03:52  +  00:36:27=28,794 
82 BELRik RendersBELAiglons Belges09:03:52  +  00:36:27=28,794 
83 LUXWilly KempINTHolland-Luxembourg09:03:52  +  00:36:27=28,794 
84 FRARaymond GueganFRAWest09:03:52  +  00:36:27=28,794 
85 FRADaniel OrtsFRACenter-South West09:03:52  +  00:36:27=28,794 
86 FRACamille DanguillaumeFRAFrance09:03:52  +  00:36:27=28,794 
87 FRAYvan MarieFRAWest09:03:52  +  00:36:27=28,794 
88 LUXRené BieverINTHolland-Luxembourg09:05:57  +  00:38:32=28,684 
89 FRAJacques PrasFRACenter-South West09:40:10  +  01:12:45=26,992 
90 FRAAmédée RollandFRASouth-East09:40:10  +  01:12:45=26,992 

Withdrawls: 4
 
Rider
Team
Reason
85  FRALouis DeprezFRAIle De France-North EastDid not finish
105  FRALucien LaukFRAParisDid not finish
106  FRALucien LaukFRAParisDid not finish
108  FRARobert MignatFRAParisDid not finish

Todays birthdays.

1885  Alfons Lauwers
1886  Leon Kopp
1892  Camille Leroy
1894  Charles Martinet
1912  Karl Litschi
1935  Francois Goasduff
1937  Ezio Pizzoglio
1942  Paul Köchli
1945  Harry Steevens
1949  Pedro Torres
1963  Dante Rezze
1970  Gilles Talmant
1976  Remmert Wielinga
1987  Jonathan Castroviejo




Visits: